Location: Courcelles
(49.2596°N, 1.7419°E)
Time: 06:33:41
(UTC+00:00)

COSMO-SKYMED 1 - Pass Details

Date: 17 November 2025
Orbit: 579 x 581 km, 97.9° (Epoch: 06 December)

Event Time Altitude Azimuth Distance (km) Brightness Sun altitude
Exits shadow 18:57:36 44° 308° (NW) 805 3.4 -27.3°
Maximum altitude 18:58:00 46° 290° (WNW) 786 3.4 -27.4°
Drops below altitude 10° 19:01:56 10° 217° (SW) 1,892 5.4 -28.0°
Sets 19:04:07 0° 211° (SSW) 2,787 6.3 -28.4°
